User: anonymous
Location: Unspecified
(0.0000°N, 0.0000°E)
Time: 17:52:35
(UTC+02:00)
Language:

Cosmos 773 Rocket - Orbit

View from above orbital plane
View from above orbital plane
View from above satellite
View from above satellite

Ground track
Ground track

The orbit data is extracted from the following two-line orbital elements,

1 08344U 75094B   14272.23659973  .00000259  00000-0  92684-4 0  5809
2 08344 074.0578 153.1605 0022875 301.9798 196.7567 14.38794962 43016
Epoch (UTC): 29 September 2014 05:40:42
Eccentricity: 0.0022875
inclination: 74.0578°
perigee height: 746 km
apogee height: 779 km
right ascension of ascending node: 153.1605°
argument of perigee: 301.9798°
revolutions per day: 14.38794962
mean anomaly at epoch: 196.7567°
orbit number at epoch: 4301

The dashed part of the orbit path shows where the satellite is in the earth's shadow,  

DLR